Torna al catalogo

STARLINK-2452

AttivoComunicazioniVLEO
NORAD 48115·PAYLOAD·🇺🇸 United States

Lanciato Apr 7, 2021 da Cape Canaveral Space Force Station

Loading…

Prossimi Passaggi (prossime 24 ore)

TLE

AggiornatoSource: CelesTrak SupGP

Epoca: Sep 14, 2026, 21:44 UTC

1 48115C 21027Z   26257.90604167 -.00033941  00000+0 -10915-2 0  2572
2 48115  53.1601 354.3471 0001227  74.2589 206.3461 15.31718010    11

Traccia STARLINK-2452 in tempo reale con AllMySat

Download on the App Store